Location: Dead Woman Crossing
(43.5369°N, 106.3228°W)
Time: 11:46:17
(UTC+00:00)

X-37B - Visible Passes

Search period start: 18 January 2022 00:00
Search period end: 28 January 2022 00:00
Orbit: 334 x 337 km, 45.0° (Epoch: 11 January)

Date Brightness Start Highest point End Pass type
(mag) Time Alt. Az. Time Alt. Az. Time Alt. Az.
26 Jan 3.0 02:06:54 10° SSW 02:07:38 15° SSW 02:07:38 15° SSW visible
27 Jan 2.9 00:53:53 10° SSE 00:54:34 11° SE 00:55:16 10° SE visible
27 Jan 3.3 02:26:48 10° WSW 02:27:26 15° SW 02:27:26 15° SW visible
